BEIDOU-2 M3 (C11)

Last updated on Sun Jun 21 2026 00:03:31 GMT+0000 (Coordinated Universal Time)

1 38250U 12018A 26170.87348603 -.00000087 00000+0 00000+0 0 9999 2 38250 55.7552 304.7847 0020163 273.6567 86.1052 1.86229605 95993
UTC large
Height (km)
Speed (km/s)
/
Latitude / Longitude
Inclination (degrees)
Orbital Period (minutes)
Azimuth
Elevation
Range (km)
Doppler Factor

Next 0 passes for location: London (51.5072 / 0.1276)

No passes found over London.
BEIDOU-2 M3 (C11)